UB9HDK-13 Weather Reports


Display with metric or nautical units.
time (UTC)temp
F
wind
direction
speed
MPH
gust
MPH
rain 1hr
in
rain 24hr
in
rain mn
in
humidity
%
barometer
mb
20260509000245 47 0.0 0.0 0.00 0.00 0.00 72 1001.6
20260508230239 48 0.0 0.0 0.00 0.00 0.00 68 1001.2
20260508220252 48 0.0 0.0 0.00 0.00 0.00 68 1001.6
20260508210229 50 0.0 0.0 0.00 0.00 0.00 59 1000.7
20260508200233 51 0.0 0.0 0.00 0.00 0.00 57 1001.0
20260508190241 52 0.0 0.0 0.00 0.00 0.00 54 1001.7
20260508180241 53 0.0 0.0 0.00 0.00 0.00 52 1001.4
20260508170300 55 0.0 0.0 0.00 0.00 0.00 55 1001.5
20260508160233 56 0.0 0.0 0.00 0.00 0.00 52 1001.3
20260508150233 58 0.0 0.0 0.00 0.00 0.00 54 1001.0
20260508140253 60 0.0 0.0 0.00 0.00 0.00 59 1000.1
20260508130246 62 0.0 0.0 0.00 0.00 0.00 59 999.3
20260508120246 66 0.0 0.0 0.00 0.00 0.00 57 999.1
20260508110245 65 0.0 0.0 0.00 0.00 0.00 58 998.6
20260508100238 72 0.0 0.0 0.00 0.00 0.00 48 997.7
20260508090245 75 0.0 0.0 0.00 0.00 0.00 43 997.4
20260508080230 77 0.0 0.0 0.00 0.00 0.00 40 997.2
20260508070250 77 0.0 0.0 0.00 0.00 0.00 30 997.3
20260508060315 76 0.0 0.0 0.00 0.00 0.00 30 997.5
20260508050257 76 0.0 0.0 0.00 0.00 0.00 38 997.7